| time (UTC) | temp F | wind direction | speed MPH | gust MPH | rain 1hr in | rain 24hr in | rain mn in | humidity % | barometer mb |
| 20260508015546 | 50 | 94 | 0.0 | 1.0 | 0.00 | 0.11 | 0.05 | 91 | 1012.0 |
| 20260508014558 | 50 | 124 | 0.0 | 1.0 | 0.00 | 0.11 | 0.05 | 91 | 1011.8 |
| 20260508013518 | 50 | 1 | 0.0 | 1.0 | 0.00 | 0.11 | 0.05 | 90 | 1011.7 |
| 20260508012518 | 51 | 19 | 0.0 | 0.0 | 0.00 | 0.11 | 0.05 | 90 | 1011.6 |
| 20260508011518 | 51 | 101 | 0.0 | 1.0 | 0.00 | 0.11 | 0.05 | 89 | 1011.6 |
| 20260508010538 | 52 | 90 | 0.0 | 0.0 | 0.00 | 0.11 | 0.05 | 89 | 1011.6 |
| 20260508005518 | 52 | 96 | 1.0 | 2.0 | 0.00 | 0.11 | 0.05 | 89 | 1011.7 |
| 20260508004519 | 52 | 92 | 0.0 | 1.0 | 0.00 | 0.11 | 0.05 | 88 | 1011.7 |
| 20260508003538 | 53 | 109 | 0.0 | 1.0 | 0.00 | 0.11 | 0.05 | 87 | 1011.7 |
| 20260508002519 | 54 | 124 | 0.0 | 1.0 | 0.00 | 0.11 | 0.05 | 87 | 1011.6 |
| 20260508001519 | 54 | 92 | 0.0 | 1.0 | 0.00 | 0.11 | 0.05 | 86 | 1011.5 |
| 20260508000517 | 55 | 55 | 1.0 | 2.0 | 0.00 | 0.11 | 0.05 | 85 | 1011.3 |
| 20260507235600 | 56 | 58 | 1.0 | 2.0 | 0.00 | 0.11 | 0.05 | 84 | 1011.0 |
| 20260507234539 | 57 | 64 | 1.0 | 2.0 | 0.00 | 0.11 | 0.05 | 83 | 1010.9 |
| 20260507233557 | 57 | 121 | 0.0 | 2.0 | 0.00 | 0.11 | 0.05 | 83 | 1010.8 |
| 20260507232618 | 58 | 65 | 2.0 | 3.0 | 0.00 | 0.11 | 0.05 | 82 | 1010.7 |
| 20260507231520 | 59 | 52 | 1.0 | 3.0 | 0.00 | 0.11 | 0.05 | 82 | 1010.5 |
| 20260507230558 | 60 | 125 | 1.0 | 3.0 | 0.00 | 0.11 | 0.05 | 82 | 1010.4 |
| 20260507225517 | 59 | 113 | 1.0 | 2.0 | 0.00 | 0.11 | 0.05 | 83 | 1010.2 |
| 20260507224518 | 58 | 155 | 2.0 | 4.0 | 0.00 | 0.11 | 0.05 | 85 | 1010.3 |
| 20260507223517 | 57 | 85 | 1.0 | 4.0 | 0.00 | 0.11 | 0.05 | 87 | 1010.3 |
| 20260507222550 | 56 | 108 | 1.0 | 4.0 | 0.00 | 0.11 | 0.05 | 87 | 1010.7 |
| 20260507221550 | 56 | 123 | 1.0 | 2.0 | 0.00 | 0.11 | 0.05 | 88 | 1010.7 |
| 20260507220531 | 56 | 25 | 2.0 | 5.0 | 0.00 | 0.11 | 0.05 | 88 | 1010.7 |
| 20260507215531 | 56 | 104 | 1.0 | 2.0 | 0.00 | 0.11 | 0.05 | 89 | 1010.7 |
| 20260507214530 | 56 | 77 | 1.0 | 2.0 | 0.00 | 0.11 | 0.05 | 89 | 1010.7 |
| 20260507213611 | 55 | 80 | 1.0 | 2.0 | 0.00 | 0.11 | 0.05 | 90 | 1010.5 |
| 20260507212551 | 55 | 82 | 1.0 | 2.0 | 0.00 | 0.11 | 0.05 | 90 | 1010.4 |
| 20260507211516 | 55 | 104 | 2.0 | 3.0 | 0.00 | 0.11 | 0.05 | 90 | 1010.4 |
| 20260507210637 | 55 | 123 | 1.0 | 2.0 | 0.00 | 0.11 | 0.05 | 91 | 1010.4 |
| 20260507205552 | 55 | 356 | 1.0 | 3.0 | 0.00 | 0.11 | 0.05 | 91 | 1010.3 |
| 20260507204531 | 54 | 88 | 2.0 | 4.0 | 0.00 | 0.11 | 0.05 | 92 | 1010.2 |
| 20260507203632 | 54 | 63 | 1.0 | 5.0 | 0.00 | 0.11 | 0.05 | 92 | 1010.3 |
| 20260507202517 | 54 | 357 | 1.0 | 2.0 | 0.00 | 0.11 | 0.05 | 92 | 1010.6 |
| 20260507201537 | 54 | 78 | 2.0 | 4.0 | 0.00 | 0.11 | 0.05 | 92 | 1010.8 |
| 20260507200538 | 54 | 73 | 2.0 | 4.0 | 0.00 | 0.11 | 0.05 | 91 | 1010.6 |
| 20260507194612 | 55 | 113 | 1.0 | 3.0 | 0.00 | 0.11 | 0.05 | 91 | 1011.0 |
| 20260507193518 | 55 | 343 | 2.0 | 4.0 | 0.00 | 0.11 | 0.05 | 92 | 1011.0 |
| 20260507192659 | 55 | 42 | 2.0 | 3.0 | 0.00 | 0.11 | 0.05 | 92 | 1010.8 |
| 20260507191518 | 55 | 43 | 2.0 | 4.0 | 0.00 | 0.11 | 0.05 | 92 | 1011.0 |
| 20260507190518 | 55 | 322 | 2.0 | 4.0 | 0.00 | 0.11 | 0.05 | 92 | 1011.0 |
| 20260507185516 | 54 | 73 | 2.0 | 5.0 | 0.00 | 0.11 | 0.05 | 91 | 1010.9 |
| 20260507184516 | 55 | 12 | 1.0 | 3.0 | 0.00 | 0.11 | 0.05 | 91 | 1011.0 |
| 20260507183537 | 55 | 321 | 2.0 | 4.0 | 0.00 | 0.11 | 0.05 | 91 | 1011.1 |
| 20260507182539 | 55 | 352 | 2.0 | 3.0 | 0.00 | 0.11 | 0.05 | 91 | 1011.0 |
| 20260507181517 | 55 | 105 | 2.0 | 3.0 | 0.00 | 0.11 | 0.05 | 91 | 1011.2 |
| 20260507180538 | 55 | 73 | 2.0 | 4.0 | 0.00 | 0.11 | 0.04 | 91 | 1011.1 |
| 20260507175519 | 55 | 344 | 2.0 | 6.0 | 0.00 | 0.11 | 0.04 | 91 | 1011.1 |
| 20260507174539 | 54 | 14 | 2.0 | 5.0 | 0.00 | 0.11 | 0.04 | 92 | 1011.0 |
| 20260507173518 | 55 | 47 | 3.0 | 8.0 | 0.00 | 0.11 | 0.04 | 92 | 1010.9 |
| 20260507172558 | 55 | 46 | 2.0 | 4.0 | 0.00 | 0.11 | 0.04 | 92 | 1010.9 |
| 20260507171558 | 55 | 72 | 3.0 | 6.0 | 0.00 | 0.11 | 0.04 | 93 | 1010.6 |
| 20260507170538 | 55 | 58 | 3.0 | 8.0 | 0.00 | 0.11 | 0.04 | 93 | 1010.6 |
| 20260507165559 | 55 | 13 | 3.0 | 5.0 | 0.00 | 0.12 | 0.04 | 93 | 1010.9 |
| 20260507164619 | 55 | 95 | 3.0 | 5.0 | 0.00 | 0.12 | 0.04 | 93 | 1011.1 |
| 20260507163559 | 54 | 24 | 3.0 | 4.0 | 0.00 | 0.12 | 0.04 | 93 | 1011.3 |
| 20260507162519 | 55 | 67 | 3.0 | 6.0 | 0.00 | 0.12 | 0.04 | 93 | 1011.1 |
| 20260507161540 | 55 | 19 | 2.0 | 4.0 | 0.00 | 0.12 | 0.04 | 93 | 1011.1 |
| 20260507160700 | 55 | 30 | 1.0 | 3.0 | 0.00 | 0.12 | 0.04 | 93 | 1011.3 |
| 20260507155539 | 55 | 94 | 2.0 | 5.0 | 0.00 | 0.12 | 0.04 | 92 | 1011.3 |
| 20260507154519 | 56 | 46 | 3.0 | 7.0 | 0.00 | 0.12 | 0.04 | 92 | 1011.2 |
| 20260507153520 | 56 | 46 | 3.0 | 5.0 | 0.00 | 0.12 | 0.04 | 92 | 1011.2 |
| 20260507152520 | 57 | 13 | 2.0 | 6.0 | 0.00 | 0.12 | 0.04 | 92 | 1011.4 |
| 20260507151520 | 59 | 44 | 4.0 | 8.0 | 0.00 | 0.12 | 0.04 | 92 | 1011.0 |
| 20260507150600 | 60 | 358 | 3.0 | 7.0 | 0.00 | 0.12 | 0.04 | 93 | 1010.8 |
| 20260507145601 | 60 | 27 | 2.0 | 6.0 | 0.00 | 0.13 | 0.04 | 93 | 1010.5 |
| 20260507144520 | 61 | 44 | 3.0 | 6.0 | 0.00 | 0.14 | 0.04 | 93 | 1010.3 |
| 20260507143542 | 61 | 318 | 2.0 | 5.0 | 0.00 | 0.17 | 0.04 | 94 | 1010.1 |
| 20260507142520 | 61 | 323 | 2.0 | 4.0 | 0.00 | 0.18 | 0.04 | 94 | 1010.0 |
| 20260507141520 | 61 | 21 | 2.0 | 5.0 | 0.00 | 0.20 | 0.04 | 94 | 1010.1 |
| 20260507140541 | 61 | 92 | 2.0 | 6.0 | 0.00 | 0.20 | 0.04 | 95 | 1010.2 |
| 20260507135522 | 61 | 72 | 2.0 | 4.0 | 0.00 | 0.20 | 0.04 | 95 | 1010.3 |
| 20260507134521 | 62 | 329 | 3.0 | 6.0 | 0.00 | 0.21 | 0.04 | 95 | 1010.3 |
| 20260507133643 | 62 | 304 | 2.0 | 4.0 | 0.00 | 0.22 | 0.04 | 96 | 1010.7 |
| 20260507132521 | 62 | 340 | 1.0 | 3.0 | 0.00 | 0.22 | 0.04 | 96 | 1010.4 |
| 20260507131521 | 62 | 313 | 1.0 | 3.0 | 0.00 | 0.23 | 0.04 | 96 | 1010.8 |
| 20260507130521 | 63 | 81 | 1.0 | 3.0 | 0.00 | 0.23 | 0.04 | 96 | 1011.0 |
| 20260507125522 | 63 | 64 | 0.0 | 1.0 | 0.00 | 0.23 | 0.04 | 97 | 1011.0 |
| 20260507124522 | 63 | 325 | 0.0 | 0.0 | 0.00 | 0.23 | 0.04 | 97 | 1011.0 |
| 20260507123542 | 63 | 0.0 | 0.0 | 0.00 | 0.23 | 0.04 | 96 | 1010.8 | |
| 20260507122602 | 63 | 0.0 | 0.0 | 0.00 | 0.23 | 0.04 | 96 | 1010.3 | |
| 20260507121522 | 63 | 86 | 1.0 | 2.0 | 0.00 | 0.23 | 0.04 | 96 | 1010.6 |
| 20260507120543 | 63 | 121 | 0.0 | 1.0 | 0.00 | 0.23 | 0.04 | 96 | 1010.6 |
| 20260507115523 | 63 | 60 | 1.0 | 3.0 | 0.00 | 0.23 | 0.04 | 96 | 1010.6 |
| 20260507114623 | 63 | 35 | 1.0 | 2.0 | 0.00 | 0.23 | 0.04 | 96 | 1010.6 |
| 20260507113523 | 63 | 10 | 0.0 | 1.0 | 0.00 | 0.23 | 0.04 | 96 | 1010.4 |
| 20260507112523 | 63 | 108 | 1.0 | 1.0 | 0.00 | 0.23 | 0.04 | 96 | 1010.2 |
| 20260507111544 | 62 | 72 | 0.0 | 1.0 | 0.00 | 0.23 | 0.04 | 96 | 1010.3 |
| 20260507110523 | 62 | 91 | 1.0 | 2.0 | 0.00 | 0.23 | 0.04 | 96 | 1010.5 |
| 20260507105544 | 62 | 136 | 0.0 | 1.0 | 0.00 | 0.23 | 0.04 | 96 | 1010.5 |
| 20260507104524 | 62 | 143 | 1.0 | 2.0 | 0.00 | 0.23 | 0.04 | 96 | 1010.2 |
| 20260507103524 | 63 | 29 | 1.0 | 2.0 | 0.01 | 0.23 | 0.04 | 96 | 1010.2 |
| 20260507102645 | 63 | 83 | 0.0 | 1.0 | 0.01 | 0.23 | 0.04 | 96 | 1010.0 |
| 20260507101605 | 63 | 97 | 0.0 | 1.0 | 0.01 | 0.23 | 0.04 | 96 | 1009.9 |
| 20260507100605 | 63 | 123 | 0.0 | 0.0 | 0.01 | 0.23 | 0.04 | 96 | 1009.7 |
| 20260507095627 | 63 | 13 | 1.0 | 2.0 | 0.01 | 0.23 | 0.04 | 96 | 1009.2 |
| 20260507094525 | 62 | 78 | 1.0 | 3.0 | 0.01 | 0.23 | 0.04 | 96 | 1009.6 |
| 20260507093525 | 63 | 135 | 0.0 | 1.0 | 0.00 | 0.23 | 0.03 | 96 | 1009.8 |
| 20260507092525 | 63 | 109 | 1.0 | 1.0 | 0.00 | 0.23 | 0.03 | 96 | 1009.8 |
| 20260507091526 | 63 | 144 | 1.0 | 2.0 | 0.00 | 0.22 | 0.03 | 95 | 1010.5 |
| 20260507090526 | 63 | 359 | 1.0 | 2.0 | 0.00 | 0.22 | 0.03 | 95 | 1010.2 |
| 20260507085526 | 63 | 104 | 1.0 | 1.0 | 0.00 | 0.22 | 0.03 | 95 | 1009.9 |
| 20260507084546 | 63 | 101 | 0.0 | 1.0 | 0.00 | 0.22 | 0.03 | 95 | 1009.9 |
| 20260507083546 | 63 | 110 | 1.0 | 2.0 | 0.00 | 0.22 | 0.03 | 95 | 1010.2 |
| 20260507082546 | 63 | 0.0 | 0.0 | 0.00 | 0.22 | 0.03 | 95 | 1010.1 | |
| 20260507081527 | 63 | 99 | 0.0 | 1.0 | 0.00 | 0.22 | 0.03 | 95 | 1009.8 |
| 20260507080607 | 63 | 103 | 1.0 | 2.0 | 0.00 | 0.22 | 0.03 | 95 | 1009.8 |
| 20260507075527 | 63 | 121 | 1.0 | 2.0 | 0.00 | 0.22 | 0.03 | 95 | 1010.0 |
| 20260507074528 | 63 | 112 | 0.0 | 1.0 | 0.00 | 0.22 | 0.03 | 95 | 1009.9 |
| 20260507073527 | 63 | 113 | 1.0 | 1.0 | 0.00 | 0.22 | 0.03 | 95 | 1009.9 |
| 20260507072547 | 63 | 54 | 0.0 | 1.0 | 0.00 | 0.22 | 0.03 | 94 | 1009.7 |
| 20260507071608 | 64 | 117 | 1.0 | 1.0 | 0.00 | 0.22 | 0.03 | 94 | 1009.9 |
| 20260507070628 | 64 | 86 | 0.0 | 1.0 | 0.00 | 0.22 | 0.03 | 94 | 1010.0 |
| 20260507065528 | 64 | 94 | 0.0 | 1.0 | 0.00 | 0.22 | 0.03 | 94 | 1009.7 |
| 20260507064528 | 64 | 116 | 1.0 | 3.0 | 0.00 | 0.22 | 0.03 | 94 | 1009.5 |
| 20260507063548 | 64 | 114 | 1.0 | 3.0 | 0.00 | 0.22 | 0.03 | 94 | 1009.8 |
| 20260507062528 | 64 | 101 | 2.0 | 3.0 | 0.00 | 0.22 | 0.03 | 94 | 1010.2 |
| 20260507061529 | 64 | 120 | 1.0 | 2.0 | 0.00 | 0.22 | 0.03 | 93 | 1010.7 |
| 20260507060529 | 64 | 119 | 2.0 | 2.0 | 0.00 | 0.22 | 0.03 | 93 | 1010.9 |
| 20260507055529 | 64 | 123 | 1.0 | 2.0 | 0.00 | 0.22 | 0.03 | 93 | 1011.1 |
| 20260507054650 | 64 | 119 | 1.0 | 3.0 | 0.00 | 0.22 | 0.03 | 93 | 1011.3 |
| 20260507053549 | 64 | 109 | 1.0 | 2.0 | 0.00 | 0.22 | 0.03 | 93 | 1011.4 |
| 20260507052529 | 65 | 104 | 1.0 | 2.0 | 0.00 | 0.22 | 0.03 | 92 | 1011.7 |
| 20260507051530 | 65 | 113 | 1.0 | 2.0 | 0.00 | 0.22 | 0.03 | 92 | 1011.8 |
| 20260507050530 | 65 | 126 | 0.0 | 1.0 | 0.00 | 0.22 | 0.03 | 92 | 1011.9 |
| 20260507045650 | 65 | 89 | 1.0 | 2.0 | 0.03 | 0.22 | 0.03 | 92 | 1011.6 |
| 20260507044630 | 65 | 348 | 0.0 | 1.0 | 0.05 | 0.22 | 0.03 | 91 | 1011.8 |
| 20260507043530 | 64 | 107 | 1.0 | 1.0 | 0.07 | 0.22 | 0.03 | 91 | 1011.8 |
| 20260507042537 | 65 | 0.0 | 0.0 | 0.07 | 0.22 | 0.03 | 91 | 1011.8 | |
| 20260507041531 | 65 | 122 | 0.0 | 1.0 | 0.08 | 0.22 | 0.03 | 91 | 1011.3 |
| 20260507040531 | 65 | 74 | 2.0 | 5.0 | 0.08 | 0.22 | 0.03 | 91 | 1010.8 |
| 20260507035551 | 65 | 99 | 1.0 | 2.0 | 0.06 | 0.19 | 0.19 | 90 | 1012.1 |
| 20260507034518 | 65 | 103 | 1.0 | 3.0 | 0.04 | 0.17 | 0.17 | 89 | 1012.6 |
| 20260507033518 | 65 | 121 | 0.0 | 1.0 | 0.02 | 0.15 | 0.15 | 89 | 1012.6 |
| 20260507032538 | 65 | 105 | 0.0 | 1.0 | 0.02 | 0.15 | 0.15 | 88 | 1012.6 |
| 20260507031519 | 65 | 109 | 0.0 | 1.0 | 0.01 | 0.14 | 0.14 | 88 | 1012.4 |
| 20260507030518 | 65 | 98 | 0.0 | 1.0 | 0.01 | 0.14 | 0.14 | 87 | 1012.1 |
| 20260507025559 | 66 | 101 | 0.0 | 1.0 | 0.01 | 0.14 | 0.14 | 87 | 1011.8 |
| 20260507024700 | 66 | 126 | 1.0 | 1.0 | 0.01 | 0.14 | 0.14 | 87 | 1011.7 |
| 20260507023559 | 66 | 109 | 1.0 | 2.0 | 0.01 | 0.14 | 0.14 | 86 | 1011.8 |
| 20260507022540 | 66 | 133 | 0.0 | 2.0 | 0.00 | 0.13 | 0.13 | 85 | 1012.0 |
| 20260507021519 | 66 | 320 | 1.0 | 2.0 | 0.00 | 0.13 | 0.13 | 85 | 1012.0 |
| 20260507020519 | 66 | 25 | 0.0 | 1.0 | 0.00 | 0.13 | 0.13 | 85 | 1011.4 |